When you browse on this site, cookies collect data to enhance your experience and personalize the content and advertising you see.
Visit our Privacy Policy to learn more. By continuing to use the site, you agree to this use of cookies and data.
  • In Spain
  • List of Countries
  • For 7 days
  • Water Temperature
  • Satellite Maps
  • Weather Map
  • Weather Widgets
  • user-avatar
    Login

    Hourly Weather Río Gallegos

    Today, 18 December, Tuesday

    Time Temperature Precipitation Wind Pressure Humidity
    00:00 +8°C° 0 mm 9 mps 757 mmHg 64%
    01:00 +9°C° 0 mm 5 mps 756 mmHg 67%
    02:00 +9°C° 0.6 mm 5 mps 756 mmHg 71%
    03:00 +8°C° 0.6 mm 5 mps 756 mmHg 75%
    04:00 +8°C° 0.6 mm 5 mps 755 mmHg 80%
    05:00 +8°C° 0.7 mm 5 mps 755 mmHg 80%
    06:00 +8°C° 0.7 mm 6 mps 754 mmHg 80%
    07:00 +9°C° 0.7 mm 6 mps 753 mmHg 80%
    08:00 +10°C° 0.3 mm 6 mps 753 mmHg 73%
    09:00 +11°C° 0.3 mm 6 mps 752 mmHg 66%
    10:00 +14°C° 0.3 mm 6 mps 751 mmHg 59%
    11:00 +15°C° 0 mm 7 mps 751 mmHg 60%
    12:00 +15°C° 0 mm 8 mps 751 mmHg 60%
    13:00 +16°C° 0 mm 8 mps 751 mmHg 60%
    14:00 +16°C° 0 mm 8 mps 751 mmHg 62%
    15:00 +15°C° 0 mm 8 mps 751 mmHg 63%
    16:00 +15°C° 0 mm 8 mps 751 mmHg 65%
    17:00 +15°C° 0.1 mm 7 mps 751 mmHg 68%
    18:00 +14°C° 0.1 mm 6 mps 752 mmHg 71%
    19:00 +13°C° 0.1 mm 5 mps 752 mmHg 74%
    20:00 +13°C° 0 mm 4 mps 753 mmHg 76%
    21:00 +13°C° 0 mm 4 mps 753 mmHg 78%
    22:00 +12°C° 0 mm 3 mps 754 mmHg 80%
    23:00 +12°C° 0 mm 3 mps 754 mmHg 81%

    Tomorrow, 19 December, Wednesday

    Time Temperature Precipitation Wind Pressure Humidity
    00:00 +11°C° 0 mm 3 mps 755 mmHg 83%
    01:00 +11°C° 0 mm 3 mps 755 mmHg 85%
    02:00 +10°C° 0 mm 3 mps 755 mmHg 85%
    03:00 +10°C° 0 mm 3 mps 756 mmHg 86%
    04:00 +10°C° 0 mm 3 mps 756 mmHg 86%
    05:00 +12°C° 0 mm 2 mps 757 mmHg 81%
    06:00 +12°C° 0 mm 2 mps 757 mmHg 76%
    07:00 +13°C° 0 mm 2 mps 758 mmHg 71%
    08:00 +14°C° 0 mm 2 mps 758 mmHg 67%
    09:00 +14°C° 0 mm 3 mps 758 mmHg 64%
    10:00 +17°C° 0 mm 3 mps 758 mmHg 61%
    11:00 +17°C° 0 mm 4 mps 758 mmHg 59%
    12:00 +18°C° 0 mm 4 mps 758 mmHg 56%
    13:00 +18°C° 0 mm 4 mps 758 mmHg 54%
    14:00 +19°C° 0 mm 4 mps 758 mmHg 53%
    15:00 +19°C° 0 mm 4 mps 758 mmHg 51%
    16:00 +20°C° 0 mm 4 mps 758 mmHg 50%
    17:00 +19°C° 0 mm 4 mps 758 mmHg 51%
    18:00 +19°C° 0 mm 3 mps 758 mmHg 52%
    19:00 +19°C° 0 mm 3 mps 758 mmHg 52%
    20:00 +18°C° 0 mm 3 mps 758 mmHg 57%
    21:00 +17°C° 0 mm 3 mps 758 mmHg 61%
    22:00 +14°C° 0 mm 3 mps 758 mmHg 65%
    23:00 +14°C° 0 mm 3 mps 758 mmHg 66%

    Day after tomorrow, 20 December, Thursday

    Time Temperature Precipitation Wind Pressure Humidity
    00:00 +14°C° 0 mm 3 mps 758 mmHg 67%
    01:00 +14°C° 0 mm 2 mps 758 mmHg 68%
    02:00 +14°C° 0 mm 2 mps 757 mmHg 68%
    03:00 +14°C° 0 mm 2 mps 757 mmHg 69%
    04:00 +14°C° 0 mm 2 mps 756 mmHg 69%
    05:00 +14°C° 0 mm 3 mps 756 mmHg 64%
    06:00 +16°C° 0 mm 3 mps 756 mmHg 60%
    07:00 +17°C° 0 mm 4 mps 755 mmHg 55%
    08:00 +18°C° 0 mm 4 mps 755 mmHg 51%
    09:00 +20°C° 0 mm 5 mps 755 mmHg 48%
    10:00 +21°C° 0 mm 6 mps 754 mmHg 44%
    11:00 +20°C° 0.1 mm 7 mps 754 mmHg 45%
    12:00 +20°C° 0.1 mm 8 mps 754 mmHg 47%
    13:00 +18°C° 0.1 mm 9 mps 754 mmHg 48%
    14:00 +18°C° 0 mm 10 mps 754 mmHg 47%
    15:00 +18°C° 0 mm 11 mps 754 mmHg 46%
    16:00 +17°C° 0 mm 13 mps 755 mmHg 44%
    17:00 +15°C° 0 mm 12 mps 755 mmHg 47%
    18:00 +14°C° 0 mm 12 mps 755 mmHg 51%
    19:00 +13°C° 0 mm 12 mps 755 mmHg 54%
    20:00 +12°C° 0 mm 11 mps 756 mmHg 56%
    21:00 +11°C° 0 mm 10 mps 756 mmHg 58%
    22:00 +10°C° 0 mm 9 mps 756 mmHg 61%
    23:00 +9°C° 0 mm 10 mps 756 mmHg 60%

    21 December, Friday

    Time Temperature Precipitation Wind Pressure Humidity
    00:00 +9°C° 0 mm 10 mps 756 mmHg 60%
    01:00 +9°C° 0 mm 10 mps 756 mmHg 60%
    02:00 +9°C° 0 mm 10 mps 756 mmHg 60%
    03:00 +11°C° 0 mm 10 mps 756 mmHg 60%
    04:00 +11°C° 0 mm 9 mps 756 mmHg 60%
    05:00 +12°C° 0 mm 10 mps 755 mmHg 56%
    06:00 +13°C° 0 mm 10 mps 755 mmHg 53%
    07:00 +14°C° 0 mm 11 mps 755 mmHg 50%
    08:00 +16°C° 0 mm 11 mps 755 mmHg 47%
    09:00 +17°C° 0 mm 11 mps 755 mmHg 44%
    10:00 +18°C° 0 mm 11 mps 754 mmHg 42%
    11:00 +18°C° 0 mm 10 mps 754 mmHg 41%
    12:00 +18°C° 0 mm 10 mps 754 mmHg 41%
    13:00 +19°C° 0 mm 10 mps 753 mmHg 40%
    14:00 +19°C° 0 mm 10 mps 753 mmHg 41%
    15:00 +19°C° 0 mm 10 mps 753 mmHg 41%
    16:00 +19°C° 0 mm 10 mps 753 mmHg 41%
    17:00 +18°C° 0 mm 9 mps 753 mmHg 44%
    18:00 +17°C° 0 mm 9 mps 753 mmHg 48%
    19:00 +16°C° 0 mm 8 mps 753 mmHg 51%
    20:00 +15°C° 0 mm 8 mps 753 mmHg 53%
    21:00 +14°C° 0 mm 7 mps 753 mmHg 55%
    22:00 +14°C° 0 mm 6 mps 753 mmHg 58%
    23:00 +13°C° 0 mm 6 mps 753 mmHg 58%

    22 December, Saturday

    Time Temperature Precipitation Wind Pressure Humidity
    00:00 +13°C° 0 mm 5 mps 753 mmHg 59%
    01:00 +13°C° 0 mm 4 mps 752 mmHg 60%
    02:00 +13°C° 0.1 mm 4 mps 752 mmHg 61%
    03:00 +13°C° 0.1 mm 4 mps 752 mmHg 63%
    04:00 +13°C° 0.1 mm 3 mps 752 mmHg 65%
    05:00 +13°C° 0.1 mm 4 mps 752 mmHg 62%
    06:00 +14°C° 0.1 mm 4 mps 752 mmHg 59%
    07:00 +14°C° 0.1 mm 5 mps 752 mmHg 57%
    08:00 +15°C° 0 mm 6 mps 751 mmHg 53%
    09:00 +16°C° 0 mm 6 mps 751 mmHg 50%
    10:00 +17°C° 0 mm 7 mps 751 mmHg 47%
    11:00 +17°C° 0.1 mm 7 mps 751 mmHg 48%
    12:00 +17°C° 0.1 mm 7 mps 751 mmHg 49%
    13:00 +17°C° 0.1 mm 7 mps 751 mmHg 50%
    14:00 +17°C° 0.1 mm 7 mps 751 mmHg 50%
    15:00 +17°C° 0.1 mm 7 mps 751 mmHg 49%
    16:00 +17°C° 0.1 mm 7 mps 751 mmHg 49%
    17:00 +17°C° 0 mm 6 mps 752 mmHg 50%
    18:00 +16°C° 0 mm 6 mps 752 mmHg 52%
    19:00 +16°C° 0 mm 6 mps 752 mmHg 54%
    20:00 +15°C° 0 mm 5 mps 753 mmHg 57%
    21:00 +13°C° 0 mm 5 mps 753 mmHg 61%
    22:00 +12°C° 0 mm 4 mps 754 mmHg 64%
    23:00 +12°C° 0 mm 3 mps 754 mmHg 68%

    23 December, Sunday

    Time Temperature Precipitation Wind Pressure Humidity
    00:00 +12°C° 0 mm 2 mps 754 mmHg 71%
    01:00 +12°C° 0 mm 1 mps 754 mmHg 74%
    02:00 +12°C° 0 mm 2 mps 754 mmHg 73%
    03:00 +11°C° 0 mm 3 mps 753 mmHg 71%
    04:00 +11°C° 0 mm 4 mps 753 mmHg 69%
    05:00 +11°C° 0 mm 6 mps 752 mmHg 67%
    06:00 +12°C° 0 mm 8 mps 752 mmHg 64%
    07:00 +13°C° 0 mm 10 mps 751 mmHg 62%
    08:00 +16°C° 0 mm 10 mps 750 mmHg 56%
    09:00 +18°C° 0 mm 10 mps 749 mmHg 50%
    10:00 +21°C° 0 mm 10 mps 748 mmHg 43%
    11:00 +21°C° 0 mm 9 mps 748 mmHg 42%
    12:00 +21°C° 0 mm 9 mps 748 mmHg 40%
    13:00 +21°C° 0 mm 9 mps 748 mmHg 38%
    14:00 +19°C° 0 mm 9 mps 748 mmHg 40%
    15:00 +18°C° 0 mm 9 mps 748 mmHg 42%
    16:00 +17°C° 0 mm 9 mps 749 mmHg 44%
    17:00 +16°C° 0 mm 8 mps 749 mmHg 44%
    18:00 +15°C° 0 mm 8 mps 749 mmHg 45%
    19:00 +14°C° 0 mm 7 mps 750 mmHg 46%
    20:00 +13°C° 0.1 mm 6 mps 750 mmHg 49%
    21:00 +12°C° 0.1 mm 5 mps 750 mmHg 51%
    22:00 +11°C° 0.1 mm 4 mps 750 mmHg 54%
    23:00 +11°C° 0.4 mm 4 mps 750 mmHg 59%
    Show more